Station Historical Data
Daily Summary for October 10, 2017 Units:  Metric    English   Both
« Previous Day
Next Day »
Daily Weekly Monthly Yearly Custom
  High: Low: Average:
Temperature: 29.3 °C 20.6 °C 24.2 °C
Dew Point: 23.9 °C 19.3 °C 21.8 °C
Humidity: 95% 67% 87%
Wind Speed: 14.5km/h 1.6km/h 6.9km/h
Wind Gust: 14.5km/h - -
Wind- - SSE
Pressure: 1019.5 hPa 1016.8 hPa -
Precipitation: 0 mm    
Historical Graphs
 
 
Tabular Data for October 10, 2017
Time Temperature Dew Point Pressure Wind Wind Speed Wind Gust Humidity Rainfall Rate (Hourly) Conditions
00:00 23.1 °C 22.1 °C 1016.8 hPa SSE 8 km/h 8 km/h 94% 0 mm RA
00:05 23.1 °C 22.1 °C 1016.8 hPa SSE 8 km/h 8 km/h 94% 0 mm OVC
00:10 23.1 °C 22.1 °C 1016.8 hPa SSE 8 km/h 8 km/h 94% 0 mm OVC
00:15 23.1 °C 22.1 °C 1016.8 hPa ESE 4.8 km/h 8 km/h 94% 0 mm OVC
00:20 23.1 °C 22.1 °C 1016.8 hPa East 4.8 km/h 4.8 km/h 94% 0 mm OVC
00:25 23.1 °C 22.1 °C 1016.8 hPa East 4.8 km/h 4.8 km/h 94% 0 mm OVC
00:30 23.1 °C 22.1 °C 1016.8 hPa East 4.8 km/h 4.8 km/h 94% 0 mm OVC
00:40 23.1 °C 22.1 °C 1016.8 hPa East 4.8 km/h 4.8 km/h 94% 0 mm OVC
00:45 23.1 °C 22.1 °C 1016.8 hPa ESE 8 km/h 8 km/h 94% 0 mm OVC
00:50 23.1 °C 22.1 °C 1017.2 hPa ESE 8 km/h 8 km/h 94% 0 mm OVC
00:55 23.1 °C 22.1 °C 1017.2 hPa ESE 8 km/h 8 km/h 94% 0 mm OVC
01:05 23 °C 22 °C 1017.2 hPa ESE 8 km/h 8 km/h 94% 0 mm OVC
01:10 23 °C 22 °C 1017.2 hPa ESE 8 km/h 8 km/h 94% 0 mm OVC
01:15 22.9 °C 21.9 °C 1017.2 hPa ESE 8 km/h 8 km/h 94% 0 mm OVC
01:20 22.9 °C 21.9 °C 1017.2 hPa ESE 8 km/h 8 km/h 94% 0 mm OVC
01:25 22.9 °C 21.9 °C 1017.2 hPa ESE 8 km/h 8 km/h 94% 0 mm OVC
01:30 22.9 °C 21.9 °C 1017.2 hPa ESE 8 km/h 8 km/h 94% 0 mm OVC
01:35 22.9 °C 21.9 °C 1017.2 hPa ESE 8 km/h 8 km/h 94% 0 mm OVC
01:40 22.9 °C 21.9 °C 1017.2 hPa ESE 8 km/h 8 km/h 94% 0 mm OVC
01:45 22.8 °C 21.8 °C 1017.2 hPa ESE 4.8 km/h 8 km/h 94% 0 mm OVC
01:50 22.8 °C 21.8 °C 1017.2 hPa ESE 4.8 km/h 4.8 km/h 94% 0 mm OVC
02:00 22.8 °C 21.8 °C 1017.5 hPa ESE 4.8 km/h 4.8 km/h 94% 0 mm OVC
02:05 22.8 °C 21.8 °C 1017.5 hPa ESE 4.8 km/h 4.8 km/h 94% 0 mm OVC
02:10 22.8 °C 21.8 °C 1017.5 hPa ESE 4.8 km/h 4.8 km/h 94% 0 mm OVC
02:15 22.8 °C 21.8 °C 1017.5 hPa ESE 4.8 km/h 4.8 km/h 94% 0 mm OVC
02:20 22.8 °C 21.8 °C 1017.5 hPa East 4.8 km/h 4.8 km/h 94% 0 mm OVC
02:25 22.8 °C 21.8 °C 1017.5 hPa East 4.8 km/h 4.8 km/h 94% 0 mm OVC
02:30 22.8 °C 21.8 °C 1017.5 hPa East 4.8 km/h 4.8 km/h 94% 0 mm OVC
02:35 22.7 °C 21.7 °C 1017.5 hPa East 4.8 km/h 4.8 km/h 94% 0 mm OVC
02:40 22.7 °C 21.7 °C 1017.5 hPa East 4.8 km/h 4.8 km/h 94% 0 mm OVC
02:50 22.7 °C 21.7 °C 1017.5 hPa East 4.8 km/h 4.8 km/h 94% 0 mm OVC
02:55 22.7 °C 21.7 °C 1017.5 hPa East 4.8 km/h 4.8 km/h 94% 0 mm OVC
03:00 22.7 °C 21.7 °C 1017.5 hPa East 4.8 km/h 4.8 km/h 94% 0 mm OVC
03:05 22.7 °C 21.7 °C 1017.5 hPa East 4.8 km/h 4.8 km/h 94% 0 mm OVC
03:15 22.6 °C 21.6 °C 1017.5 hPa ESE 8 km/h 8 km/h 94% 0 mm OVC
03:20 22.6 °C 21.6 °C 1017.5 hPa ESE 8 km/h 8 km/h 94% 0 mm OVC
03:25 22.6 °C 21.6 °C 1017.5 hPa ESE 8 km/h 8 km/h 94% 0 mm OVC
03:30 22.6 °C 21.6 °C 1017.5 hPa ESE 8 km/h 8 km/h 94% 0 mm OVC
03:35 22.6 °C 21.6 °C 1017.5 hPa ESE 8 km/h 8 km/h 94% 0 mm OVC
03:40 22.6 °C 21.6 °C 1017.5 hPa ESE 8 km/h 8 km/h 94% 0 mm OVC
03:45 22.6 °C 21.6 °C 1017.5 hPa ESE 8 km/h 8 km/h 94% 0 mm OVC
03:50 22.6 °C 21.6 °C 1017.5 hPa ESE 8 km/h 8 km/h 94% 0 mm OVC
03:55 22.6 °C 21.6 °C 1017.5 hPa ESE 8 km/h 8 km/h 94% 0 mm OVC
04:00 22.6 °C 21.6 °C 1017.5 hPa ESE 8 km/h 8 km/h 94% 0 mm OVC
04:05 22.6 °C 21.6 °C 1017.5 hPa ESE 8 km/h 8 km/h 94% 0 mm OVC
04:10 22.6 °C 21.6 °C 1017.5 hPa ESE 8 km/h 8 km/h 94% 0 mm OVC
04:15 22.6 °C 21.6 °C 1017.5 hPa ESE 1.6 km/h 8 km/h 94% 0 mm OVC
04:20 22.6 °C 21.6 °C 1017.5 hPa East 1.6 km/h 1.6 km/h 94% 0 mm OVC
04:25 22.6 °C 21.6 °C 1017.5 hPa East 1.6 km/h 1.6 km/h 94% 0 mm OVC
04:30 22.6 °C 21.6 °C 1017.5 hPa East 1.6 km/h 1.6 km/h 94% 0 mm OVC
04:35 22.6 °C 21.6 °C 1017.5 hPa East 1.6 km/h 1.6 km/h 94% 0 mm OVC
04:40 22.6 °C 21.5 °C 1017.5 hPa East 1.6 km/h 1.6 km/h 94% 0 mm OVC
04:45 22.5 °C 21.5 °C 1017.5 hPa East 1.6 km/h 1.6 km/h 94% 0 mm OVC
04:50 22.5 °C 21.5 °C 1017.5 hPa East 1.6 km/h 1.6 km/h 94% 0 mm OVC
04:55 22.5 °C 21.5 °C 1017.5 hPa East 1.6 km/h 1.6 km/h 94% 0 mm OVC
05:00 22.5 °C 21.5 °C 1017.5 hPa East 1.6 km/h 1.6 km/h 94% 0 mm OVC
05:05 22.4 °C 21.4 °C 1017.5 hPa East 1.6 km/h 1.6 km/h 94% 0 mm OVC
05:10 22.4 °C 21.4 °C 1017.5 hPa East 1.6 km/h 1.6 km/h 94% 0 mm OVC
05:20 22.4 °C 21.4 °C 1017.5 hPa East 1.6 km/h 1.6 km/h 94% 0 mm OVC
05:25 22.4 °C 21.4 °C 1017.5 hPa East 1.6 km/h 1.6 km/h 94% 0 mm OVC
05:30 22.4 °C 21.4 °C 1017.5 hPa East 1.6 km/h 1.6 km/h 94% 0 mm OVC
05:35 22.4 °C 21.4 °C 1017.8 hPa East 1.6 km/h 1.6 km/h 94% 0 mm OVC
05:40 22.4 °C 21.4 °C 1017.8 hPa East 1.6 km/h 1.6 km/h 94% 0 mm OVC
05:45 22.4 °C 21.4 °C 1017.8 hPa East 1.6 km/h 1.6 km/h 94% 0 mm OVC
05:50 22.5 °C 21.4 °C 1017.8 hPa East 1.6 km/h 1.6 km/h 94% 0 mm OVC
05:55 22.5 °C 21.7 °C 1017.8 hPa ESE 4.8 km/h 4.8 km/h 95% 0 mm OVC
06:00 22.5 °C 21.7 °C 1017.8 hPa ESE 4.8 km/h 4.8 km/h 95% 0 mm OVC
06:05 22.6 °C 21.7 °C 1017.8 hPa ESE 4.8 km/h 4.8 km/h 95% 0 mm OVC
06:10 22.6 °C 21.7 °C 1017.8 hPa ESE 4.8 km/h 4.8 km/h 95% 0 mm OVC
06:15 22.6 °C 21.7 °C 1017.8 hPa ESE 3.2 km/h 4.8 km/h 95% 0 mm OVC
06:20 22.5 °C 21.7 °C 1017.8 hPa ESE 3.2 km/h 3.2 km/h 95% 0 mm OVC
06:25 22.6 °C 21.7 °C 1017.8 hPa ESE 3.2 km/h 3.2 km/h 95% 0 mm OVC
06:30 22.5 °C 21.5 °C 1017.8 hPa ESE 3.2 km/h 3.2 km/h 94% 0 mm OVC
06:40 22.5 °C 21.5 °C 1017.8 hPa ESE 3.2 km/h 3.2 km/h 94% 0 mm OVC
06:45 22.5 °C 21.5 °C 1018.2 hPa ESE 3.2 km/h 3.2 km/h 94% 0 mm OVC
06:50 22.4 °C 21.4 °C 1018.2 hPa ESE 3.2 km/h 3.2 km/h 94% 0 mm OVC
06:55 22.4 °C 21.4 °C 1018.2 hPa ESE 3.2 km/h 3.2 km/h 94% 0 mm OVC
07:00 22.4 °C 21.4 °C 1018.2 hPa ESE 3.2 km/h 3.2 km/h 94% 0 mm OVC
07:05 22.4 °C 21.4 °C 1018.2 hPa ESE 3.2 km/h 3.2 km/h 94% 0 mm OVC
07:10 22.4 °C 21.4 °C 1018.2 hPa ESE 3.2 km/h 3.2 km/h 94% 0 mm OVC
07:15 22.4 °C 21.4 °C 1018.2 hPa ESE 4.8 km/h 4.8 km/h 94% 0 mm OVC
07:25 22.4 °C 21.4 °C 1018.2 hPa East 4.8 km/h 4.8 km/h 94% 0 mm OVC
07:30 22.4 °C 21.4 °C 1018.2 hPa East 4.8 km/h 4.8 km/h 94% 0 mm OVC
07:35 22.4 °C 21.4 °C 1018.5 hPa East 4.8 km/h 4.8 km/h 94% 0 mm OVC
07:40 22.4 °C 21.6 °C 1018.5 hPa East 4.8 km/h 4.8 km/h 95% 0 mm OVC
07:45 22.3 °C 21.5 °C 1018.5 hPa ESE 9.7 km/h 9.7 km/h 95% 0 mm
07:50 22.3 °C 21.5 °C 1018.5 hPa ESE 9.7 km/h 9.7 km/h 95% 0 mm
07:55 22.4 °C 21.6 °C 1018.5 hPa ESE 9.7 km/h 9.7 km/h 95% 0 mm
08:00 22.4 °C 21.6 °C 1018.5 hPa ESE 9.7 km/h 9.7 km/h 95% 0 mm
08:05 22.4 °C 21.6 °C 1018.5 hPa ESE 9.7 km/h 9.7 km/h 95% 0 mm
08:10 22.4 °C 21.6 °C 1018.8 hPa ESE 9.7 km/h 9.7 km/h 95% 0 mm
08:15 22.4 °C 21.6 °C 1018.8 hPa SE 4.8 km/h 9.7 km/h 95% 0 mm
08:20 22.5 °C 21.7 °C 1018.8 hPa SE 4.8 km/h 4.8 km/h 95% 0 mm
08:25 22.6 °C 21.7 °C 1018.8 hPa SE 4.8 km/h 4.8 km/h 95% 0 mm
08:30 22.6 °C 21.7 °C 1019.2 hPa SE 4.8 km/h 4.8 km/h 95% 0 mm
08:40 22.6 °C 21.7 °C 1019.2 hPa SE 4.8 km/h 4.8 km/h 95% 0 mm
08:45 22.6 °C 21.7 °C 1019.2 hPa ESE 1.6 km/h 4.8 km/h 95% 0 mm
08:50 22.6 °C 21.8 °C 1019.2 hPa East 1.6 km/h 1.6 km/h 95% 0 mm
08:55 22.6 °C 21.8 °C 1019.2 hPa East 4.8 km/h 4.8 km/h 95% 0 mm
09:00 22.7 °C 21.8 °C 1019.5 hPa East 4.8 km/h 4.8 km/h 95% 0 mm
09:05 22.7 °C 21.8 °C 1019.5 hPa East 4.8 km/h 4.8 km/h 95% 0 mm
09:10 22.7 °C 21.9 °C 1019.5 hPa East 4.8 km/h 4.8 km/h 95% 0 mm
09:15 22.7 °C 21.9 °C 1019.5 hPa ESE 4.8 km/h 4.8 km/h 95% 0 mm OVC
09:20 22.7 °C 21.9 °C 1019.5 hPa ESE 4.8 km/h 4.8 km/h 95% 0 mm OVC
09:25 22.7 °C 21.9 °C 1019.5 hPa ESE 4.8 km/h 4.8 km/h 95% 0 mm OVC
09:30 22.8 °C 21.9 °C 1019.5 hPa ESE 4.8 km/h 4.8 km/h 95% 0 mm OVC
09:35 22.8 °C 21.9 °C 1019.5 hPa ESE 4.8 km/h 4.8 km/h 95% 0 mm OVC
09:40 22.8 °C 22 °C 1019.5 hPa ESE 4.8 km/h 4.8 km/h 95% 0 mm OVC
09:45 22.8 °C 21.8 °C 1019.5 hPa ESE 4.8 km/h 4.8 km/h 94% 0 mm OVC
09:50 22.8 °C 21.8 °C 1019.5 hPa ESE 4.8 km/h 4.8 km/h 94% 0 mm OVC
09:55 22.9 °C 21.9 °C 1019.5 hPa ESE 4.8 km/h 4.8 km/h 94% 0 mm OVC
10:00 23 °C 22.2 °C 1019.5 hPa SE 4.8 km/h 4.8 km/h 95% 0 mm OVC
10:05 23 °C 22 °C 1019.5 hPa SE 4.8 km/h 4.8 km/h 94% 0 mm OVC
10:10 23 °C 22 °C 1019.5 hPa SE 4.8 km/h 4.8 km/h 94% 0 mm OVC
10:15 23.1 °C 22.1 °C 1019.5 hPa ESE 4.8 km/h 4.8 km/h 94% 0 mm OVC
10:20 23.2 °C 22.2 °C 1019.5 hPa ESE 4.8 km/h 4.8 km/h 94% 0 mm OVC
10:25 23.2 °C 22.2 °C 1019.5 hPa ESE 4.8 km/h 4.8 km/h 94% 0 mm OVC
10:30 23.3 °C 22.3 °C 1019.5 hPa ESE 4.8 km/h 4.8 km/h 94% 0 mm OVC
10:40 23.3 °C 22.3 °C 1019.5 hPa ESE 4.8 km/h 4.8 km/h 94% 0 mm OVC
10:45 23.4 °C 22.4 °C 1019.5 hPa ESE 4.8 km/h 4.8 km/h 94% 0 mm OVC
10:50 23.5 °C 22.5 °C 1019.5 hPa ESE 4.8 km/h 4.8 km/h 94% 0 mm OVC
10:55 23.7 °C 22.7 °C 1019.5 hPa ESE 8 km/h 8 km/h 94% 0 mm OVC
11:00 23.8 °C 22.8 °C 1019.5 hPa ESE 8 km/h 8 km/h 94% 0 mm OVC
11:05 24.1 °C 23 °C 1019.5 hPa ESE 8 km/h 8 km/h 94% 0 mm OVC
11:10 24.2 °C 23.1 °C 1019.5 hPa ESE 8 km/h 8 km/h 93% 0 mm OVC
11:15 24.4 °C 22.9 °C 1019.5 hPa ESE 4.8 km/h 8 km/h 91% 0 mm OVC
11:20 24.8 °C 23.2 °C 1019.2 hPa ESE 4.8 km/h 4.8 km/h 91% 0 mm OVC
11:25 25.3 °C 23.3 °C 1019.2 hPa ESE 4.8 km/h 4.8 km/h 89% 0 mm OVC
11:35 26.1 °C 23.7 °C 1019.5 hPa ESE 4.8 km/h 4.8 km/h 87% 0 mm OVC
11:40 26.3 °C 23.7 °C 1019.2 hPa ESE 4.8 km/h 4.8 km/h 86% 0 mm OVC
11:45 26.4 °C 23.7 °C 1019.5 hPa SSE 3.2 km/h 4.8 km/h 85% 0 mm OVC
11:50 26.5 °C 23.8 °C 1019.5 hPa South 3.2 km/h 3.2 km/h 85% 0 mm OVC
11:55 26.4 °C 23.5 °C 1019.5 hPa South 3.2 km/h 3.2 km/h 84% 0 mm OVC
12:00 26.5 °C 23.8 °C 1019.5 hPa South 3.2 km/h 3.2 km/h 85% 0 mm OVC
12:05 26.6 °C 23.5 °C 1019.5 hPa South 3.2 km/h 3.2 km/h 83% 0 mm OVC
12:10 26.5 °C 23.4 °C 1019.2 hPa South 3.2 km/h 3.2 km/h 83% 0 mm OVC
12:15 26.3 °C 23.4 °C 1019.2 hPa South 4.8 km/h 4.8 km/h 84% 0 mm OVC
12:20 26.4 °C 23.7 °C 1019.2 hPa South 4.8 km/h 4.8 km/h 85% 0 mm OVC
12:25 26.5 °C 23.4 °C 1019.2 hPa South 4.8 km/h 4.8 km/h 83% 0 mm OVC
12:30 26.5 °C 23.4 °C 1019.2 hPa South 4.8 km/h 4.8 km/h 83% 0 mm OVC
12:35 26.4 °C 23.3 °C 1019.2 hPa South 4.8 km/h 4.8 km/h 83% 0 mm OVC
12:40 26.4 °C 23.4 °C 1019.2 hPa South 4.8 km/h 4.8 km/h 84% 0 mm OVC
12:45 26.6 °C 23.4 °C 1019.2 hPa South 4.8 km/h 4.8 km/h 83% 0 mm BKN
12:50 26.8 °C 23.2 °C 1018.8 hPa South 4.8 km/h 4.8 km/h 81% 0 mm BKN
12:55 26.9 °C 23.8 °C 1018.8 hPa South 4.8 km/h 4.8 km/h 83% 0 mm BKN
13:00 27.1 °C 23.8 °C 1018.8 hPa South 4.8 km/h 4.8 km/h 82% 0 mm BKN
13:05 27.3 °C 23.6 °C 1018.8 hPa South 4.8 km/h 4.8 km/h 80% 0 mm BKN
13:10 27.4 °C 23.2 °C 1018.8 hPa South 4.8 km/h 4.8 km/h 78% 0 mm BKN
13:15 27.6 °C 23.4 °C 1018.8 hPa South 8 km/h 8 km/h 78% 0 mm BKN
13:20 27.8 °C 23.8 °C 1018.5 hPa South 8 km/h 8 km/h 79% 0 mm BKN
13:25 27.9 °C 23.5 °C 1018.5 hPa South 8 km/h 8 km/h 77% 0 mm BKN
13:30 28 °C 23.4 °C 1018.5 hPa South 8 km/h 8 km/h 76% 0 mm BKN
13:35 27.9 °C 23.1 °C 1018.5 hPa South 8 km/h 8 km/h 75% 0 mm BKN
13:40 27.9 °C 23.5 °C 1018.5 hPa South 8 km/h 8 km/h 77% 0 mm BKN
13:45 27.8 °C 23.2 °C 1018.2 hPa SSW 12.9 km/h 12.9 km/h 76% 0 mm BKN
13:50 27.9 °C 23.7 °C 1018.2 hPa SSW 12.9 km/h 12.9 km/h 78% 0 mm BKN
13:55 28.1 °C 23.1 °C 1018.2 hPa SSW 12.9 km/h 12.9 km/h 74% 0 mm BKN
14:00 28.5 °C 23.4 °C 1018.2 hPa SSW 12.9 km/h 12.9 km/h 74% 0 mm BKN
14:05 28.9 °C 23.4 °C 1017.8 hPa SSW 12.9 km/h 12.9 km/h 72% 0 mm BKN
14:10 29.1 °C 23.3 °C 1017.8 hPa SSW 12.9 km/h 12.9 km/h 71% 0 mm BKN
14:15 29.3 °C 23.9 °C 1017.8 hPa South 14.5 km/h 14.5 km/h 73% 0 mm BKN
14:25 29.1 °C 23.6 °C 1017.8 hPa South 14.5 km/h 14.5 km/h 72% 0 mm BKN
14:30 29.1 °C 23.3 °C 1017.8 hPa South 14.5 km/h 14.5 km/h 71% 0 mm BKN
14:35 29 °C 23.2 °C 1017.8 hPa South 14.5 km/h 14.5 km/h 71% 0 mm BKN
14:40 28.8 °C 22.8 °C 1017.8 hPa South 14.5 km/h 14.5 km/h 70% 0 mm BKN
14:45 28.7 °C 23.4 °C 1017.5 hPa South 9.7 km/h 14.5 km/h 73% 0 mm SCT
14:50 28.8 °C 23.3 °C 1017.5 hPa South 9.7 km/h 9.7 km/h 72% 0 mm SCT
14:55 29 °C 22.7 °C 1017.5 hPa South 9.7 km/h 9.7 km/h 69% 0 mm SCT
15:00 29 °C 22.7 °C 1017.5 hPa South 9.7 km/h 9.7 km/h 69% 0 mm SCT
15:05 28.9 °C 22.4 °C 1017.5 hPa South 9.7 km/h 9.7 km/h 68% 0 mm SCT
15:10 28.9 °C 22.2 °C 1017.5 hPa South 9.7 km/h 9.7 km/h 67% 0 mm SCT
15:15 28.7 °C 22 °C 1017.5 hPa SSW 12.9 km/h 12.9 km/h 67% 0 mm BKN
15:20 28.6 °C 22.6 °C 1017.5 hPa SSW 12.9 km/h 12.9 km/h 70% 0 mm BKN
15:25 28.4 °C 22.4 °C 1017.5 hPa SSW 12.9 km/h 12.9 km/h 70% 0 mm BKN
15:30 28.3 °C 22.8 °C 1017.5 hPa SSW 12.9 km/h 12.9 km/h 72% 0 mm BKN
15:35 28.2 °C 22.4 °C 1017.5 hPa SSW 12.9 km/h 12.9 km/h 71% 0 mm BKN
15:40 28.2 °C 22.6 °C 1017.5 hPa SSW 12.9 km/h 12.9 km/h 72% 0 mm BKN
15:45 28.2 °C 22.9 °C 1017.5 hPa SSW 12.9 km/h 12.9 km/h 73% 0 mm BKN
15:50 28.2 °C 22.4 °C 1017.5 hPa SSW 12.9 km/h 12.9 km/h 71% 0 mm BKN
15:55 28.3 °C 22.8 °C 1017.5 hPa SSW 12.9 km/h 12.9 km/h 72% 0 mm BKN
16:00 28.4 °C 22.6 °C 1017.5 hPa SSW 12.9 km/h 12.9 km/h 71% 0 mm BKN
16:05 28.5 °C 22.7 °C 1017.5 hPa SSW 12.9 km/h 12.9 km/h 71% 0 mm BKN
16:10 28.6 °C 22.1 °C 1017.2 hPa SSW 12.9 km/h 12.9 km/h 68% 0 mm BKN
16:15 28.7 °C 22.4 °C 1017.2 hPa SSW 11.3 km/h 12.9 km/h 69% 0 mm BKN
16:20 28.8 °C 22.5 °C 1017.2 hPa SSW 11.3 km/h 11.3 km/h 69% 0 mm BKN
16:25 28.8 °C 22.1 °C 1017.2 hPa SSW 11.3 km/h 11.3 km/h 67% 0 mm BKN
16:30 28.8 °C 22.1 °C 1017.2 hPa SSW 11.3 km/h 11.3 km/h 67% 0 mm BKN
16:45 28.4 °C 21.9 °C 1016.8 hPa SSW 11.3 km/h 11.3 km/h 68% 0 mm BKN
16:50 28.3 °C 22.3 °C 1016.8 hPa SSW 11.3 km/h 11.3 km/h 70% 0 mm BKN
16:55 28.2 °C 22.4 °C 1016.8 hPa SSW 11.3 km/h 11.3 km/h 71% 0 mm BKN
17:00 28 °C 22.3 °C 1016.8 hPa SSW 11.3 km/h 11.3 km/h 71% 0 mm BKN
17:05 27.8 °C 22.1 °C 1016.8 hPa SSW 11.3 km/h 11.3 km/h 71% 0 mm BKN
17:10 27.7 °C 22.2 °C 1016.8 hPa SSW 11.3 km/h 11.3 km/h 72% 0 mm BKN
17:15 27.7 °C 21.9 °C 1016.8 hPa SSW 12.9 km/h 12.9 km/h 71% 0 mm BKN
17:20 27.5 °C 22 °C 1016.8 hPa SSW 12.9 km/h 12.9 km/h 72% 0 mm BKN
17:25 27.3 °C 22 °C 1016.8 hPa SSW 12.9 km/h 12.9 km/h 73% 0 mm BKN
17:30 27.2 °C 21.9 °C 1016.8 hPa SSW 12.9 km/h 12.9 km/h 73% 0 mm BKN
17:35 27.1 °C 21.9 °C 1016.8 hPa SSW 12.9 km/h 12.9 km/h 73% 0 mm BKN
17:40 26.9 °C 21.7 °C 1016.8 hPa SSW 12.9 km/h 12.9 km/h 73% 0 mm BKN
17:45 26.8 °C 21.8 °C 1016.8 hPa SSW 12.9 km/h 12.9 km/h 74% 0 mm BKN
17:50 26.6 °C 21.6 °C 1016.8 hPa SSW 12.9 km/h 12.9 km/h 74% 0 mm BKN
17:55 26.5 °C 21.5 °C 1017.2 hPa SSW 12.9 km/h 12.9 km/h 74% 0 mm BKN
18:00 26.4 °C 21.6 °C 1017.2 hPa SSW 12.9 km/h 12.9 km/h 75% 0 mm BKN
18:05 26.2 °C 21.4 °C 1017.2 hPa SSW 12.9 km/h 12.9 km/h 75% 0 mm BKN
18:10 26 °C 21.2 °C 1017.2 hPa SSW 12.9 km/h 12.9 km/h 75% 0 mm BKN
18:15 25.8 °C 21.1 °C 1017.2 hPa SW 14.5 km/h 14.5 km/h 75% 0 mm SCT
18:25 25.4 °C 20.9 °C 1017.2 hPa SW 14.5 km/h 14.5 km/h 76% 0 mm SCT
18:30 25.3 °C 21 °C 1017.2 hPa SW 14.5 km/h 14.5 km/h 77% 0 mm SCT
18:35 25.2 °C 21.1 °C 1017.2 hPa SW 14.5 km/h 14.5 km/h 78% 0 mm SCT
18:40 25.1 °C 21.2 °C 1017.2 hPa SW 14.5 km/h 14.5 km/h 79% 0 mm SCT
18:45 24.9 °C 21.1 °C 1017.2 hPa SW 14.5 km/h 14.5 km/h 79% 0 mm SCT
18:50 24.8 °C 21.2 °C 1017.2 hPa SW 14.5 km/h 14.5 km/h 80% 0 mm SCT
18:55 24.8 °C 21.1 °C 1017.2 hPa SW 14.5 km/h 14.5 km/h 80% 0 mm SCT
19:00 24.7 °C 21 °C 1017.5 hPa SW 14.5 km/h 14.5 km/h 80% 0 mm SCT
19:05 24.6 °C 20.9 °C 1017.5 hPa SW 14.5 km/h 14.5 km/h 80% 0 mm SCT
19:10 24.4 °C 20.9 °C 1017.5 hPa SW 14.5 km/h 14.5 km/h 81% 0 mm SCT
19:15 24.4 °C 20.9 °C 1017.5 hPa SW 4.8 km/h 14.5 km/h 81% 0 mm BKN
19:20 24.3 °C 20.8 °C 1017.5 hPa SW 4.8 km/h 4.8 km/h 81% 0 mm BKN
19:25 24.2 °C 20.8 °C 1017.5 hPa SW 4.8 km/h 4.8 km/h 81% 0 mm BKN
19:30 24.1 °C 20.8 °C 1017.5 hPa SW 4.8 km/h 4.8 km/h 82% 0 mm BKN
19:40 23.9 °C 20.8 °C 1017.5 hPa SW 4.8 km/h 4.8 km/h 83% 0 mm BKN
19:45 23.8 °C 20.7 °C 1017.5 hPa SW 4.8 km/h 4.8 km/h 83% 0 mm BKN
19:50 23.7 °C 20.8 °C 1017.5 hPa SW 4.8 km/h 4.8 km/h 84% 0 mm BKN
19:55 23.7 °C 20.8 °C 1017.5 hPa SW 4.8 km/h 4.8 km/h 84% 0 mm BKN
20:00 23.7 °C 20.8 °C 1017.5 hPa SW 4.8 km/h 4.8 km/h 84% 0 mm BKN
20:05 23.6 °C 20.7 °C 1017.2 hPa SW 4.8 km/h 4.8 km/h 84% 0 mm BKN
20:10 23.4 °C 20.6 °C 1017.5 hPa SW 4.8 km/h 4.8 km/h 84% 0 mm BKN
20:15 23.3 °C 20.6 °C 1017.5 hPa SW 4.8 km/h 4.8 km/h 85% 0 mm SCT
20:20 23.2 °C 20.6 °C 1017.5 hPa SW 4.8 km/h 4.8 km/h 85% 0 mm SCT
20:25 23.2 °C 20.7 °C 1017.5 hPa SW 4.8 km/h 4.8 km/h 86% 0 mm SCT
20:30 23.1 °C 20.7 °C 1017.5 hPa SW 4.8 km/h 4.8 km/h 86% 0 mm SCT
20:40 22.9 °C 20.5 °C 1017.5 hPa SW 4.8 km/h 4.8 km/h 86% 0 mm SCT
20:45 22.9 °C 20.6 °C 1017.5 hPa SW 4.8 km/h 4.8 km/h 87% 0 mm SCT
20:50 22.8 °C 20.6 °C 1017.5 hPa SW 4.8 km/h 4.8 km/h 87% 0 mm SCT
20:55 22.8 °C 20.5 °C 1017.5 hPa SW 4.8 km/h 4.8 km/h 87% 0 mm SCT
21:00 22.7 °C 20.6 °C 1017.5 hPa SW 4.8 km/h 4.8 km/h 88% 0 mm SCT
21:05 22.7 °C 20.6 °C 1017.8 hPa SW 4.8 km/h 4.8 km/h 88% 0 mm SCT
21:10 22.7 °C 20.6 °C 1017.8 hPa SW 4.8 km/h 4.8 km/h 88% 0 mm SCT
21:15 22.6 °C 20.5 °C 1017.8 hPa SW 4.8 km/h 4.8 km/h 88% 0 mm SCT
21:20 22.6 °C 20.4 °C 1017.8 hPa SW 4.8 km/h 4.8 km/h 88% 0 mm SCT
21:25 22.5 °C 20.4 °C 1017.8 hPa SW 4.8 km/h 4.8 km/h 88% 0 mm SCT
21:30 22.4 °C 20.3 °C 1017.8 hPa SW 4.8 km/h 4.8 km/h 88% 0 mm SCT
21:35 22.3 °C 20.2 °C 1017.8 hPa SW 4.8 km/h 4.8 km/h 88% 0 mm SCT
21:40 22.3 °C 20.2 °C 1017.8 hPa SW 4.8 km/h 4.8 km/h 88% 0 mm SCT
21:45 22.2 °C 20.3 °C 1017.8 hPa SW 4.8 km/h 4.8 km/h 89% 0 mm SCT
21:50 22.2 °C 20.3 °C 1017.8 hPa SW 4.8 km/h 4.8 km/h 89% 0 mm SCT
21:55 22.1 °C 20.2 °C 1017.8 hPa SW 4.8 km/h 4.8 km/h 89% 0 mm SCT
22:00 22 °C 20.1 °C 1017.8 hPa SW 4.8 km/h 4.8 km/h 89% 0 mm SCT
22:05 21.9 °C 20.2 °C 1017.8 hPa SW 4.8 km/h 4.8 km/h 90% 0 mm SCT
22:10 21.9 °C 20.2 °C 1017.8 hPa SW 4.8 km/h 4.8 km/h 90% 0 mm SCT
22:15 21.8 °C 20.1 °C 1017.8 hPa SW 4.8 km/h 4.8 km/h 90% 0 mm SCT
22:20 21.7 °C 20 °C 1017.8 hPa SW 4.8 km/h 4.8 km/h 90% 0 mm SCT
22:25 21.6 °C 19.9 °C 1017.8 hPa SW 4.8 km/h 4.8 km/h 90% 0 mm SCT
22:30 21.6 °C 20.1 °C 1017.8 hPa SW 4.8 km/h 4.8 km/h 91% 0 mm SCT
22:40 21.5 °C 19.9 °C 1017.8 hPa SW 4.8 km/h 4.8 km/h 91% 0 mm SCT
22:45 21.4 °C 19.8 °C 1018.2 hPa SW 4.8 km/h 4.8 km/h 91% 0 mm SCT
22:50 21.3 °C 19.7 °C 1017.8 hPa SW 4.8 km/h 4.8 km/h 91% 0 mm SCT
22:55 21.3 °C 19.7 °C 1017.8 hPa SW 4.8 km/h 4.8 km/h 91% 0 mm SCT
23:00 21.2 °C 19.7 °C 1017.8 hPa SW 4.8 km/h 4.8 km/h 91% 0 mm SCT
23:05 21.2 °C 19.6 °C 1017.8 hPa SW 4.8 km/h 4.8 km/h 91% 0 mm SCT
23:10 21.1 °C 19.6 °C 1018.2 hPa SW 4.8 km/h 4.8 km/h 91% 0 mm SCT
23:20 21 °C 19.5 °C 1018.2 hPa SW 4.8 km/h 4.8 km/h 91% 0 mm SCT
23:25 20.9 °C 19.6 °C 1018.2 hPa SW 4.8 km/h 4.8 km/h 92% 0 mm SCT
23:30 20.9 °C 19.6 °C 1018.2 hPa SW 4.8 km/h 4.8 km/h 92% 0 mm SCT
23:40 20.8 °C 19.4 °C 1018.2 hPa SW 4.8 km/h 4.8 km/h 92% 0 mm SCT
23:45 20.7 °C 19.4 °C 1018.2 hPa SW 4.8 km/h 4.8 km/h 92% 0 mm SCT
23:50 20.7 °C 19.3 °C 1018.2 hPa SW 4.8 km/h 4.8 km/h 92% 0 mm SCT
23:55 20.6 °C 19.3 °C 1018.2 hPa SW 4.8 km/h 4.8 km/h 92% 0 mm SCT
Piedmont Bend
Compliments of Weather Underground - 2 mb